| time (UTC) | temp F | wind direction | speed MPH | gust MPH | rain 1hr in | rain 24hr in | rain mn in | humidity % | barometer mb |
| 20260505065655 | 60 | 60 | 0.0 | 0.0 | 0.05 | 0.08 | 0.00 | 74 | 1014.6 |
| 20260505065155 | 60 | 60 | 0.0 | 0.0 | 0.05 | 0.08 | 0.00 | 74 | 1014.5 |
| 20260505064655 | 60 | 60 | 0.0 | 0.0 | 0.05 | 0.08 | 0.00 | 74 | 1014.6 |
| 20260505063654 | 60 | 77 | 0.0 | 0.0 | 0.00 | 0.07 | 0.00 | 74 | 1014.4 |
| 20260505063154 | 60 | 95 | 0.0 | 0.0 | 0.00 | 0.06 | 0.00 | 74 | 1014.4 |
| 20260505062654 | 60 | 103 | 0.0 | 0.0 | 0.00 | 0.06 | 0.00 | 74 | 1014.3 |
| 20260505062154 | 60 | 111 | 4.0 | 0.0 | 0.00 | 0.06 | 0.00 | 74 | 1014.4 |
| 20260505061654 | 60 | 90 | 2.0 | 0.0 | 0.00 | 0.06 | 0.00 | 74 | 1014.4 |
| 20260505061153 | 60 | 108 | 1.0 | 0.0 | 0.00 | 0.06 | 0.00 | 74 | 1014.3 |
| 20260505060653 | 59 | 91 | 5.0 | 0.0 | 0.00 | 0.06 | 0.00 | 74 | 1014.3 |
| 20260505060153 | 59 | 110 | 5.0 | 0.0 | 0.00 | 0.06 | 0.00 | 74 | 1014.3 |
| 20260505055653 | 59 | 95 | 3.0 | 0.0 | 0.00 | 0.06 | 0.00 | 74 | 1014.2 |
| 20260505055152 | 59 | 105 | 2.0 | 0.0 | 0.00 | 0.06 | 0.00 | 74 | 1014.2 |
| 20260505054652 | 59 | 111 | 3.0 | 0.0 | 0.00 | 0.06 | 0.00 | 74 | 1014.2 |
| 20260505054152 | 59 | 115 | 4.0 | 0.0 | 0.00 | 0.06 | 0.00 | 74 | 1014.1 |
| 20260505053652 | 59 | 108 | 3.0 | 0.0 | 0.00 | 0.06 | 0.00 | 75 | 1014.1 |
| 20260505053151 | 58 | 117 | 3.0 | 0.0 | 0.00 | 0.05 | 0.00 | 75 | 1014.1 |
| 20260505052651 | 58 | 112 | 3.0 | 0.0 | 0.00 | 0.05 | 0.00 | 75 | 1014.1 |
| 20260505052151 | 58 | 119 | 3.0 | 0.0 | 0.00 | 0.05 | 0.00 | 74 | 1014.1 |
| 20260505051651 | 58 | 122 | 7.0 | 0.0 | 0.00 | 0.05 | 0.00 | 74 | 1014.1 |
| 20260505051148 | 58 | 125 | 7.0 | 0.0 | 0.00 | 0.05 | 0.00 | 74 | 1014.2 |
| 20260505050648 | 58 | 113 | 8.0 | 0.0 | 0.00 | 0.05 | 0.00 | 75 | 1014.2 |
| 20260505050147 | 58 | 128 | 11.0 | 0.0 | 0.00 | 0.05 | 0.00 | 74 | 1014.3 |
| 20260505041644 | 58 | 137 | 10.0 | 0.0 | 0.07 | 0.03 | 0.00 | 74 | 1014.5 |
| 20260505041144 | 58 | 127 | 13.0 | 0.0 | 0.07 | 0.03 | 0.00 | 74 | 1014.6 |
| 20260505040640 | 59 | 149 | 8.0 | 0.0 | 0.07 | 0.02 | 0.00 | 74 | 1014.6 |
| 20260505035638 | 60 | 138 | 4.0 | 0.0 | 0.00 | 0.01 | 0.00 | 71 | 1014.5 |
| 20260505035137 | 60 | 141 | 4.0 | 0.0 | 0.00 | 0.00 | 0.00 | 71 | 1014.5 |
| 20260505034635 | 60 | 162 | 6.0 | 0.0 | 0.00 | 0.00 | 0.00 | 69 | 1014.6 |
| 20260505034135 | 61 | 147 | 3.0 | 0.0 | 0.00 | 0.00 | 0.00 | 68 | 1014.6 |
| 20260505033634 | 61 | 136 | 5.0 | 0.0 | 0.00 | 0.00 | 0.00 | 67 | 1014.6 |
| 20260505033134 | 61 | 155 | 5.0 | 0.0 | 0.00 | 0.00 | 0.00 | 66 | 1014.6 |
| 20260505032634 | 61 | 151 | 0.0 | 0.0 | 0.00 | 0.00 | 0.00 | 65 | 1014.6 |
| 20260505032134 | 62 | 188 | 9.0 | 0.0 | 0.00 | 0.00 | 0.00 | 64 | 1014.7 |
| 20260505031633 | 62 | 145 | 4.0 | 0.0 | 0.00 | 0.00 | 0.00 | 63 | 1014.7 |
| 20260505031133 | 62 | 169 | 8.0 | 0.0 | 0.00 | 0.00 | 0.00 | 62 | 1014.6 |
| 20260505030633 | 63 | 182 | 5.0 | 0.0 | 0.00 | 0.00 | 0.00 | 61 | 1014.6 |
| 20260505030133 | 63 | 170 | 3.0 | 0.0 | 0.00 | 0.00 | 0.00 | 60 | 1014.6 |
| 20260505025632 | 63 | 176 | 7.0 | 0.0 | 0.00 | 0.00 | 0.00 | 59 | 1014.6 |
| 20260505025132 | 64 | 155 | 5.0 | 0.0 | 0.00 | 0.00 | 0.00 | 57 | 1014.5 |
| 20260505024632 | 65 | 145 | 3.0 | 0.0 | 0.00 | 0.00 | 0.00 | 55 | 1014.5 |
| 20260505024132 | 65 | 143 | 4.0 | 0.0 | 0.00 | 0.00 | 0.00 | 53 | 1014.5 |
| 20260505023632 | 65 | 137 | 8.0 | 0.0 | 0.00 | 0.00 | 0.00 | 53 | 1014.6 |
| 20260505023131 | 65 | 122 | 0.0 | 0.0 | 0.00 | 0.00 | 0.00 | 52 | 1014.6 |
| 20260505022631 | 65 | 127 | 0.0 | 0.0 | 0.00 | 0.00 | 0.00 | 52 | 1014.6 |
| 20260505022131 | 65 | 127 | 0.0 | 0.0 | 0.00 | 0.00 | 0.00 | 52 | 1014.6 |
| 20260505021631 | 65 | 122 | 0.0 | 0.0 | 0.00 | 0.00 | 0.00 | 52 | 1014.7 |
| 20260505021130 | 65 | 193 | 0.0 | 0.0 | 0.00 | 0.00 | 0.00 | 53 | 1014.7 |
| 20260505020630 | 65 | 193 | 0.0 | 0.0 | 0.00 | 0.00 | 0.00 | 53 | 1014.7 |
| 20260505020130 | 65 | 193 | 0.0 | 0.0 | 0.00 | 0.00 | 0.00 | 53 | 1014.7 |
| 20260505015630 | 65 | 193 | 0.0 | 0.0 | 0.00 | 0.00 | 0.00 | 53 | 1014.7 |
| 20260505015129 | 65 | 193 | 0.0 | 0.0 | 0.00 | 0.00 | 0.00 | 52 | 1014.7 |
| 20260505014629 | 65 | 195 | 0.0 | 0.0 | 0.00 | 0.00 | 0.00 | 53 | 1014.7 |
| 20260505014129 | 65 | 199 | 0.0 | 0.0 | 0.00 | 0.00 | 0.00 | 53 | 1014.7 |
| 20260505013629 | 65 | 172 | 0.0 | 0.0 | 0.00 | 0.00 | 0.00 | 53 | 1014.7 |
| 20260505013128 | 65 | 178 | 0.0 | 0.0 | 0.00 | 0.00 | 0.00 | 53 | 1014.8 |
| 20260505012628 | 65 | 163 | 0.0 | 0.0 | 0.00 | 0.00 | 0.00 | 53 | 1014.8 |
| 20260505012128 | 65 | 176 | 0.0 | 0.0 | 0.00 | 0.00 | 0.00 | 53 | 1014.8 |
| 20260505011628 | 65 | 179 | 1.0 | 0.0 | 0.00 | 0.00 | 0.00 | 53 | 1014.8 |
| 20260505011128 | 65 | 182 | 0.0 | 0.0 | 0.00 | 0.00 | 0.00 | 53 | 1014.8 |
| 20260505010627 | 65 | 184 | 0.0 | 0.0 | 0.00 | 0.00 | 0.00 | 54 | 1014.9 |
| 20260505010127 | 65 | 184 | 0.0 | 0.0 | 0.00 | 0.00 | 0.00 | 54 | 1015.0 |
| 20260505005627 | 65 | 184 | 0.0 | 0.0 | 0.00 | 0.00 | 0.00 | 54 | 1015.0 |
| 20260505005127 | 66 | 184 | 0.0 | 0.0 | 0.00 | 0.00 | 0.00 | 54 | 1015.0 |
| 20260505004626 | 66 | 184 | 0.0 | 0.0 | 0.00 | 0.00 | 0.00 | 54 | 1015.1 |
| 20260505004126 | 66 | 184 | 0.0 | 0.0 | 0.00 | 0.00 | 0.00 | 54 | 1015.1 |
| 20260505003626 | 66 | 180 | 6.0 | 0.0 | 0.00 | 0.00 | 0.00 | 54 | 1015.1 |
| 20260505003126 | 66 | 179 | 0.0 | 0.0 | 0.00 | 0.00 | 0.00 | 54 | 1015.2 |
| 20260505002623 | 66 | 154 | 0.0 | 0.0 | 0.00 | 0.00 | 0.00 | 55 | 1015.2 |
| 20260505002123 | 66 | 152 | 0.0 | 0.0 | 0.00 | 0.00 | 0.00 | 55 | 1015.2 |
| 20260505001623 | 66 | 176 | 0.0 | 0.0 | 0.00 | 0.00 | 0.00 | 55 | 1015.3 |
| 20260505001108 | 66 | 149 | 7.0 | 0.0 | 0.00 | 0.00 | 0.00 | 55 | 1015.4 |
| 20260505000608 | 66 | 179 | 1.0 | 0.0 | 0.00 | 0.00 | 0.00 | 55 | 1015.5 |
| 20260505000108 | 66 | 172 | 0.0 | 0.0 | 0.00 | 0.00 | 0.00 | 55 | 1015.6 |
| 20260504235607 | 66 | 185 | 4.0 | 0.0 | 0.00 | 0.00 | 0.00 | 55 | 1015.6 |
| 20260504235107 | 66 | 185 | 0.0 | 0.0 | 0.00 | 0.00 | 0.00 | 56 | 1015.6 |
| 20260504234607 | 66 | 162 | 0.0 | 0.0 | 0.00 | 0.00 | 0.00 | 56 | 1015.7 |
| 20260504234107 | 65 | 181 | 0.0 | 0.0 | 0.00 | 0.00 | 0.00 | 57 | 1015.8 |
| 20260504233606 | 65 | 181 | 0.0 | 0.0 | 0.00 | 0.00 | 0.00 | 57 | 1015.7 |
| 20260504233106 | 65 | 159 | 0.0 | 0.0 | 0.00 | 0.00 | 0.00 | 57 | 1015.9 |
| 20260504232606 | 65 | 147 | 0.0 | 0.0 | 0.00 | 0.00 | 0.00 | 57 | 1015.9 |
| 20260504232106 | 65 | 196 | 0.0 | 0.0 | 0.00 | 0.00 | 0.00 | 57 | 1016.0 |
| 20260504231605 | 65 | 196 | 0.0 | 0.0 | 0.00 | 0.00 | 0.00 | 57 | 1016.0 |
| 20260504231105 | 65 | 196 | 0.0 | 0.0 | 0.00 | 0.00 | 0.00 | 57 | 1016.1 |
| 20260504230605 | 65 | 198 | 0.0 | 0.0 | 0.00 | 0.00 | 0.00 | 57 | 1016.1 |
| 20260504230105 | 65 | 198 | 0.0 | 0.0 | 0.00 | 0.00 | 0.00 | 56 | 1016.2 |
| 20260504225604 | 65 | 198 | 0.0 | 0.0 | 0.00 | 0.00 | 0.00 | 56 | 1016.3 |
| 20260504225103 | 65 | 198 | 0.0 | 0.0 | 0.00 | 0.00 | 0.00 | 56 | 1016.3 |
| 20260504224603 | 65 | 198 | 0.0 | 0.0 | 0.00 | 0.00 | 0.00 | 56 | 1016.4 |
| 20260504224103 | 65 | 198 | 0.0 | 0.0 | 0.00 | 0.00 | 0.00 | 56 | 1016.3 |
| 20260504223603 | 65 | 199 | 0.0 | 0.0 | 0.00 | 0.00 | 0.00 | 56 | 1016.4 |
| 20260504223102 | 65 | 200 | 0.0 | 0.0 | 0.00 | 0.00 | 0.00 | 56 | 1016.5 |
| 20260504222602 | 65 | 166 | 0.0 | 0.0 | 0.00 | 0.00 | 0.00 | 56 | 1016.5 |
| 20260504222102 | 65 | 164 | 0.0 | 0.0 | 0.00 | 0.00 | 0.00 | 56 | 1016.5 |
| 20260504221602 | 65 | 179 | 0.0 | 0.0 | 0.00 | 0.00 | 0.00 | 56 | 1016.4 |
| 20260504221101 | 65 | 177 | 0.0 | 0.0 | 0.00 | 0.00 | 0.00 | 56 | 1016.5 |
| 20260504220601 | 65 | 184 | 0.0 | 0.0 | 0.00 | 0.00 | 0.00 | 56 | 1016.6 |
| 20260504220101 | 65 | 187 | 0.0 | 0.0 | 0.00 | 0.00 | 0.00 | 56 | 1016.6 |
| 20260504215601 | 65 | 182 | 5.0 | 0.0 | 0.00 | 0.00 | 0.00 | 56 | 1016.5 |
| 20260504215101 | 65 | 178 | 0.0 | 0.0 | 0.00 | 0.00 | 0.00 | 55 | 1016.5 |
| 20260504214600 | 65 | 185 | 0.0 | 0.0 | 0.00 | 0.00 | 0.00 | 55 | 1016.5 |
| 20260504214100 | 65 | 185 | 0.0 | 0.0 | 0.00 | 0.00 | 0.00 | 55 | 1016.6 |
| 20260504213631 | 66 | 180 | 0.0 | 0.0 | 0.00 | 0.00 | 0.00 | 55 | 1016.6 |
| 20260504213600 | 66 | 180 | 0.0 | 0.0 | 0.00 | 0.00 | 0.00 | 55 | 1016.6 |
| 20260504213100 | 66 | 183 | 0.0 | 0.0 | 0.00 | 0.00 | 0.00 | 54 | 1016.6 |
| 20260504212559 | 66 | 188 | 0.0 | 0.0 | 0.00 | 0.00 | 0.00 | 54 | 1016.6 |
| 20260504212059 | 66 | 220 | 8.0 | 0.0 | 0.00 | 0.00 | 0.00 | 55 | 1016.7 |
| 20260504211559 | 66 | 216 | 0.0 | 0.0 | 0.00 | 0.00 | 0.00 | 55 | 1016.7 |
| 20260504211059 | 66 | 213 | 0.0 | 0.0 | 0.00 | 0.00 | 0.00 | 56 | 1016.7 |
| 20260504210058 | 66 | 199 | 0.0 | 0.0 | 0.00 | 0.00 | 0.00 | 55 | 1016.6 |
| 20260504205558 | 66 | 181 | 0.0 | 0.0 | 0.00 | 0.00 | 0.00 | 54 | 1016.6 |
| 20260504205058 | 66 | 183 | 0.0 | 0.0 | 0.00 | 0.00 | 0.00 | 53 | 1016.5 |
| 20260504204558 | 67 | 176 | 0.0 | 0.0 | 0.00 | 0.00 | 0.00 | 53 | 1016.6 |
| 20260504204057 | 67 | 172 | 0.0 | 0.0 | 0.00 | 0.00 | 0.00 | 53 | 1016.6 |
| 20260504203557 | 67 | 197 | 0.0 | 0.0 | 0.00 | 0.00 | 0.00 | 52 | 1016.5 |
| 20260504203055 | 67 | 222 | 0.0 | 0.0 | 0.00 | 0.00 | 0.00 | 51 | 1016.5 |
| 20260504202549 | 68 | 173 | 0.0 | 0.0 | 0.00 | 0.00 | 0.00 | 50 | 1016.5 |
| 20260504202049 | 68 | 173 | 0.0 | 0.0 | 0.00 | 0.00 | 0.00 | 50 | 1016.6 |
| 20260504201549 | 68 | 173 | 0.0 | 0.0 | 0.00 | 0.00 | 0.00 | 49 | 1016.5 |
| 20260504201046 | 69 | 186 | 0.0 | 0.0 | 0.00 | 0.00 | 0.00 | 49 | 1016.4 |
| 20260504200546 | 69 | 156 | 0.0 | 0.0 | 0.00 | 0.00 | 0.00 | 49 | 1016.3 |
| 20260504200124 | 69 | 155 | 0.0 | 0.0 | 0.00 | 0.00 | 0.00 | 48 | 1016.3 |
| 20260504200045 | 69 | 155 | 0.0 | 0.0 | 0.00 | 0.00 | 0.00 | 48 | 1016.3 |
| 20260504195545 | 69 | 143 | 0.0 | 0.0 | 0.00 | 0.00 | 0.00 | 48 | 1016.3 |
| 20260504195045 | 69 | 138 | 1.0 | 0.0 | 0.00 | 0.00 | 0.00 | 47 | 1016.2 |
| 20260504194545 | 70 | 129 | 3.0 | 0.0 | 0.00 | 0.00 | 0.00 | 46 | 1016.1 |
| 20260504194044 | 70 | 137 | 4.0 | 0.0 | 0.00 | 0.00 | 0.00 | 45 | 1016.0 |
| 20260504193544 | 70 | 146 | 5.0 | 0.0 | 0.00 | 0.00 | 0.00 | 45 | 1016.0 |
| 20260504193044 | 70 | 141 | 2.0 | 0.0 | 0.00 | 0.00 | 0.00 | 44 | 1016.0 |
| 20260504192544 | 70 | 145 | 6.0 | 0.0 | 0.00 | 0.00 | 0.00 | 44 | 1016.0 |
| 20260504192044 | 70 | 156 | 0.0 | 0.0 | 0.00 | 0.00 | 0.00 | 44 | 1016.0 |
| 20260504191543 | 70 | 147 | 0.0 | 0.0 | 0.00 | 0.00 | 0.00 | 43 | 1015.9 |
| 20260504191043 | 70 | 177 | 2.0 | 0.0 | 0.00 | 0.00 | 0.00 | 43 | 1015.9 |
| 20260504190543 | 70 | 144 | 1.0 | 0.0 | 0.00 | 0.00 | 0.00 | 43 | 1015.8 |
| 20260504190043 | 70 | 152 | 0.0 | 0.0 | 0.00 | 0.00 | 0.00 | 43 | 1015.8 |
| 20260504185542 | 70 | 156 | 0.0 | 0.0 | 0.00 | 0.00 | 0.00 | 44 | 1015.7 |
| 20260504185042 | 70 | 150 | 0.0 | 0.0 | 0.00 | 0.00 | 0.00 | 44 | 1015.7 |
| 20260504184542 | 71 | 143 | 0.0 | 0.0 | 0.00 | 0.00 | 0.00 | 46 | 1015.7 |
| 20260504184042 | 71 | 136 | 0.0 | 0.0 | 0.00 | 0.00 | 0.00 | 46 | 1015.6 |
| 20260504183541 | 71 | 133 | 5.0 | 0.0 | 0.00 | 0.00 | 0.00 | 46 | 1015.6 |
| 20260504183041 | 71 | 130 | 2.0 | 0.0 | 0.00 | 0.00 | 0.00 | 47 | 1015.6 |
| 20260504182041 | 71 | 127 | 5.0 | 0.0 | 0.00 | 0.00 | 0.00 | 48 | 1015.6 |
| 20260504181541 | 71 | 121 | 5.0 | 0.0 | 0.00 | 0.00 | 0.00 | 48 | 1015.6 |
| 20260504181040 | 71 | 122 | 1.0 | 0.0 | 0.00 | 0.00 | 0.00 | 49 | 1015.6 |
| 20260504180540 | 71 | 124 | 0.0 | 0.0 | 0.00 | 0.00 | 0.00 | 49 | 1015.6 |
| 20260504180040 | 71 | 120 | 0.0 | 0.0 | 0.00 | 0.00 | 0.00 | 51 | 1015.6 |
| 20260504175710 | 71 | 119 | 2.0 | 0.0 | 0.00 | 0.00 | 0.00 | 50 | 1015.5 |
| 20260504175637 | 71 | 119 | 2.0 | 0.0 | 0.00 | 0.00 | 0.00 | 50 | 1015.5 |
| 20260504175540 | 71 | 119 | 2.0 | 0.0 | 0.00 | 0.00 | 0.00 | 50 | 1015.5 |
| 20260504175039 | 71 | 114 | 0.0 | 0.0 | 0.00 | 0.00 | 0.00 | 51 | 1015.5 |
| 20260504174539 | 71 | 106 | 0.0 | 0.0 | 0.00 | 0.00 | 0.00 | 50 | 1015.5 |
| 20260504174039 | 71 | 111 | 3.0 | 0.0 | 0.00 | 0.00 | 0.00 | 50 | 1015.6 |
| 20260504173539 | 72 | 100 | 1.0 | 0.0 | 0.00 | 0.00 | 0.00 | 50 | 1015.6 |
| 20260504173038 | 72 | 82 | 0.0 | 0.0 | 0.00 | 0.00 | 0.00 | 51 | 1015.5 |
| 20260504172538 | 72 | 83 | 0.0 | 0.0 | 0.00 | 0.00 | 0.00 | 51 | 1015.5 |
| 20260504172124 | 72 | 84 | 3.0 | 0.0 | 0.00 | 0.00 | 0.00 | 51 | 1015.5 |
| 20260504172038 | 72 | 84 | 3.0 | 0.0 | 0.00 | 0.00 | 0.00 | 51 | 1015.5 |
| 20260504171638 | 72 | 83 | 0.0 | 0.0 | 0.00 | 0.00 | 0.00 | 52 | 1015.6 |
| 20260504171538 | 72 | 83 | 0.0 | 0.0 | 0.00 | 0.00 | 0.00 | 52 | 1015.6 |
| 20260504171037 | 71 | 83 | 2.0 | 0.0 | 0.00 | 0.00 | 0.00 | 52 | 1015.5 |
| 20260504170537 | 71 | 89 | 0.0 | 0.0 | 0.00 | 0.00 | 0.00 | 52 | 1015.6 |
| 20260504160108 | 71 | 85 | 8.0 | 0.0 | 0.00 | 0.00 | 0.00 | 47 | 1015.8 |
| 20260504151022 | 71 | 56 | 12.0 | 0.0 | 0.00 | 0.00 | 0.00 | 59 | 1016.1 |
| 20260504150522 | 71 | 62 | 2.0 | 0.0 | 0.00 | 0.00 | 0.00 | 60 | 1016.1 |
| 20260504141008 | 71 | 66 | 12.0 | 0.0 | 0.00 | 0.00 | 0.00 | 61 | 1016.4 |
| 20260504140508 | 71 | 44 | 10.0 | 0.0 | 0.00 | 0.00 | 0.00 | 61 | 1016.4 |
| 20260504140125 | 71 | 28 | 11.0 | 0.0 | 0.00 | 0.00 | 0.00 | 61 | 1016.5 |
| 20260504120200 | 71 | 26 | 9.0 | 0.0 | 0.00 | 0.00 | 0.00 | 50 | 1017.6 |
| 20260504120149 | 72 | 73 | 2.0 | 0.0 | 0.00 | 0.00 | 0.00 | 48 | 1017.6 |
| 20260504110453 | 71 | 51 | 8.0 | 0.0 | 0.00 | 0.00 | 0.00 | 41 | 1017.7 |
| 20260504100530 | 72 | 301 | 0.0 | 0.0 | 0.00 | 0.00 | 0.00 | 49 | 1017.9 |
| 20260504100440 | 72 | 301 | 0.0 | 0.0 | 0.00 | 0.00 | 0.00 | 49 | 1017.9 |
| 20260504081935 | 71 | 10 | 0.0 | 0.0 | 0.00 | 0.00 | 0.00 | 54 | 1018.0 |
| 20260504081435 | 70 | 4 | 0.0 | 0.0 | 0.00 | 0.00 | 0.00 | 54 | 1018.0 |
| 20260504080934 | 70 | 28 | 0.0 | 0.0 | 0.00 | 0.00 | 0.00 | 54 | 1018.1 |
| 20260504080520 | 71 | 29 | 0.0 | 0.0 | 0.00 | 0.00 | 0.00 | 54 | 1018.0 |
| 20260504080434 | 71 | 29 | 0.0 | 0.0 | 0.00 | 0.00 | 0.00 | 54 | 1018.0 |